This is the latest recevied weather packets stored in our database for station/object KY4EF. If no packets are shown the sender has not sent any weather packets the latest 10 day(s).
| Time | Temp. | Humidity | Pressure | Rain* | Wind** | Luminosity | Snow |
|---|---|---|---|---|---|---|---|
| 1777940209 | 18.89° C | 49% | 1012.7 hPa | 0 mm | - | 5 W/m² | - |
| 1777939907 | 18.89° C | 50% | 1012.9 hPa | 0 mm | - | 7 W/m² | - |
| 1777939604 | 20° C | 48% | 1012.7 hPa | 0 mm | - | 10 W/m² | - |
| 1777939302 | 20.56° C | 46% | 1012.8 hPa | 0 mm | - | 12 W/m² | - |
| 1777938998 | 20.56° C | 43% | 1012.7 hPa | 0 mm | - | 15 W/m² | - |
| 1777938695 | 21.11° C | 45% | 1012.7 hPa | 0 mm | - | 19 W/m² | - |
| 1777938392 | 20.56° C | 43% | 1012.7 hPa | 0 mm | - | 24 W/m² | - |
| 1777938090 | 21.11° C | 47% | 1012.4 hPa | 0 mm | - | 27 W/m² | - |
| 1777937785 | 21.67° C | 44% | 1012.4 hPa | 0 mm | - | 31 W/m² | - |
| 1777937481 | 21.67° C | 42% | 1012.4 hPa | 0 mm | - | 37 W/m² | - |
| 1777937179 | 21.67° C | 45% | 1012.3 hPa | 0 mm | - | 45 W/m² | - |
| 1777936876 | 22.22° C | 44% | 1012.6 hPa | 0 mm | - | 48 W/m² | - |
| 1777936572 | 22.22° C | 44% | 1012.4 hPa | 0 mm | - | 45 W/m² | - |
| 1777936268 | 22.78° C | 44% | 1012.4 hPa | 0 mm | - | 46 W/m² | - |
| 1777935964 | 22.78° C | 44% | 1012.3 hPa | 0 mm | - | 49 W/m² | - |
| 1777935659 | 22.78° C | 43% | 1012.4 hPa | 0 mm | - | 49 W/m² | - |
| 1777935355 | 22.78° C | 42% | 1012.2 hPa | 0 mm | - | 50 W/m² | - |
| 1777935052 | 23.33° C | 43% | 1012.3 hPa | 0 mm | - | 53 W/m² | - |
| 1777934748 | 23.33° C | 42% | 1012.3 hPa | 0 mm | - | 62 W/m² | - |
| 1777934446 | 22.78° C | 42% | 1012.6 hPa | 0 mm | - | 65 W/m² | - |
| 1777934142 | 23.33° C | 42% | 1012.5 hPa | 0 mm | - | 66 W/m² | - |
| 1777933838 | 23.89° C | 39% | 1012.5 hPa | 0 mm | - | 69 W/m² | - |
| 1777933535 | 23.89° C | 40% | 1012.5 hPa | 0 mm | - | 73 W/m² | - |
| 1777933232 | 23.89° C | 38% | 1012.6 hPa | 0 mm | - | 75 W/m² | - |
| 1777932930 | 23.89° C | 39% | 1012.5 hPa | 0 mm | - | 78 W/m² | - |
* Rain latest hour (hover to see other rain measurements)
** Current wind speed in m/s (hover to see current wind gust speed)